Miscellaneous Local Product
Issued by NWS Hastings, NE

Home | Current Version | Previous Version | Text Only | Print | Product List | Glossary Off
Versions: 1 2 3 4 5 6 7 8 9 10 11 12 13 14 15 16 17 18 19 20 21 22 23 24 25 26 27 28 29 30 31 32 33 34 35 36 37 38 39 40 41 42 43 44 45 46 47 48 49 50

342
AXUS43 KGID 211302
MISGRI

GID CWA HOURLY WEATHER ROUNDUP
NATIONAL WEATHER SERVICE HASTINGS NE
700 AM CST TUE FEB 21 2017

NOTE: "FAIR" INDICATES FEW OR NO CLOUDS BELOW 12,000 FEET WITH NO
SIGNIFICANT WEATHER AND/OR OBSTRUCTIONS TO VISIBILITY.

...SOUTH CENTRAL NEBRASKA...

CITY           SKY/WX    TMP DP  RH WIND       PRES   REMARKS
GRAND ISLAND   CLEAR     41  34  76 SW10      29.98R
HASTINGS       CLEAR     38  30  73 SW7       30.00S WCI  33
KEARNEY        CLEAR     37  25  60 SW13      29.99S WCI  29
ORD            CLEAR     33  27  78 CALM      29.93S
YORK           CLEAR     34  32  93 SW9       30.00S WCI  26
AURORA         CLEAR     36  32  84 SW8       29.99S WCI  30
LEXINGTON      CLOUDY    38  23  53 W10       29.97S WCI  32
HOLDREGE       CLOUDY    37  24  59 SW7       29.98F WCI  31
HEBRON         CLOUDY    28  27  95 CALM      30.03R

...NEBRASKA PANHANDLE...

CITY           SKY/WX    TMP DP  RH WIND       PRES   REMARKS
CHADRON        CLEAR     33  26  75 S3        29.86S
ALLIANCE       CLEAR     32  23  69 SW8       29.90F WCI  25
SCOTTSBLUFF    CLOUDY    28  21  75 CALM      29.92F
SIDNEY         CLEAR     30  17  58 W7        29.98S WCI  23

...WESTERN AND NORTH CENTRAL NEBRASKA...

CITY           SKY/WX    TMP DP  RH WIND       PRES   REMARKS
VALENTINE      CLEAR     37  22  54 W9        29.84F WCI  30
AINSWORTH      CLEAR     42  24  48 SW13      29.85S
ONEILL         CLEAR     38  30  73 SW10      29.88F WCI  31
BROKEN BOW     CLEAR     42  23  46 SW3       29.93S
IMPERIAL       CLOUDY    34  18  52 SW6       29.97S WCI  29
NORTH PLATTE   CLOUDY    26  20  77 CALM      29.97S
MCCOOK         CLOUDY    29  20  69 W7        29.99R WCI  22

...EASTERN NEBRASKA...

CITY           SKY/WX    TMP DP  RH WIND       PRES   REMARKS
NORFOLK        CLEAR     40  33  76 S15       29.92F WCI  32
SO SIOUX CITY  CLEAR     32  30  92 E8        29.95S WCI  25
TEKAMAH        CLEAR     32  30  92 SE9       29.98R WCI  24
COLUMBUS       CLEAR     28  27  93 CALM      29.98S
ALBION         CLEAR     40  31  69 S7        29.96R
OMAHA EPPLEY   FOG       34  30  85 SE5       30.00R VSB 1   WCI  30
OFFUTT AFB     CLEAR     36  34  93 CALM      30.01R
MILLARD        CLEAR     34  33  96 CALM      30.00R
LINCOLN        CLEAR     27  24  89 SE3       30.01R
NEBRASKA CITY  CLEAR     37  37  99 W12       29.99R WCI  30
BEATRICE       CLOUDY    28  27  96 CALM      30.01R
FALLS CITY     CLEAR     35  34  96 W3        29.98S FOG

...NORTHERN KANSAS...

CITY           SKY/WX    TMP DP  RH WIND       PRES   REMARKS
GOODLAND       CLOUDY    41  13  31 SW12      29.98S
HILL CITY      CLOUDY    28  23  81 W6        30.03R WCI  22
NORTON         SUNNY     28  19  69 S3        30.00
SMITH CENTER   CLEAR     27  25  93 CALM      30.03R
HAYS           CLOUDY    28  26  92 W3        30.04S
RUSSELL        CLOUDY    29  25  85 SW8       30.02S WCI  21
CONCORDIA      CLOUDY    38  34  85 W8        30.02S WCI  32
SALINA         CLOUDY    34  30  85 CALM      30.04R
TOPEKA         CLEAR     43  38  82 CALM      29.98R



USA.gov is the U.S. government's official web portal to all federal, state and local government web resources and services.